ARIANE 2 DEB, 27046

Orbit data source: Space-Track

ARIANE 2 DEB, 27046 is space debris in HEO originally from a launch on Fri, 27 Jan 1989 UTC launched from the French Guiana (FRGUI). Debris objects in space refer to the collection of defunct objects orbiting the Earth. Examples of debris include non-operational satellites, rocket bodies, and fragments generated from explosions, collisions, or faulty payload assembly.

Loading next visibility...
ARIANE 2 DEB details
Identifier
27046, 1989-006AB
Orbit
HEO
Last TLE update1 day ago
Origin
Flag of FRArianespace (FR)
ManufacturerEADS/LV
MissionSpacecraft
Bus & MotorUnknown
MassUnknown
Launch date (UTC)
1989-01-27 (36 years ago)
Launch vehicleUnknown
Launch site
French Guiana (FRGUI)
Object type
Payload
Rocket body
Debris
Shape & HBRUnknown
Radar Cross SectionMedium (>0.1 m² and <1 m²)

Expand to show TLE details & history

TLE from 1 day ago
0 ARIANE 2 DEB
1 27046U 89006AB  24360.38014194  .00000017  00000-0  34075-2 0  9996
2 27046   7.2976 187.5440 7094105 237.0015  40.0484  2.24254099 99662
Epoch: 2024-12-25T09:07Z
Definitive object data (Epoch: 2024-12-25T09:07:24.263Z)
Latitude0.6141°
Longitude-38.95777°
Altitude15,230.573 km
Speed4.552 km/s
True Right ascension12h 49m 04s
True Declination0° 36' 46"
Sunlit
Object was in daylight at TLE epoch
Visualization TLE readout
Latitude4.09775°
Longitude-10.22952°
Altitude28,471.904 km
Speed2.59 km/s
Apparent Right ascension14h 16m 23s
Apparent Declination-2° 50' 16"
Sunlit
Object is in daylight
Visualization observer readout
Local Sidereal Time18:10:16
Azimuth246.334° WSW
Elevation21.643°
Doppler factor1
Orbital elements
Apogee altitude35,776.231 km
Perigee altitude787.852 km
Semi-major axis24,660.179 km
Eccentricity0.7094105
Inclination7.2976°
RAAN187.544°
Arg. of periapsis237.0015°
True anomaly127.73494°
Mean anomaly40.0484°
Eccentric anomaly80.0879°
Mean motion0.56047 °/min
BSTAR0.0034075
Orbital period642.32 mins
Loading maneuver chart data...
Loading historical data...
Loading historical data...
Loading historical data...
Loading historical data...
Loading historical data...
Loading historical data...
Loading historical data...

ARIANE 2 DEB Visibility forecast

Observer location: undefined°, undefined

Span
Click to sort rows by Start time (UTC) header in descending order
Start Az.
Max El. time (UTC)
Max El. Az.
Max El.
End time (UTC)
End Az.
192 mins2024-12-26 18:47:42.986Z246.316° WSW2024-12-26 18:51:42.986Z246.567° WSW20.246°2024-12-26 21:59:42.986Z262.581° W
283 mins2024-12-27 14:04:42.986Z225.594° WSW2024-12-27 16:48:42.986Z206.222° SW35.436°2024-12-27 18:47:42.986Z224.635° SW
|